{"data":{"norad_id":67664,"intl_designator":"2026-022S","name":"STARLINK-36404","alt_names":[],"object_type":"PAYLOAD","status":"ACTIVE","operator":null,"country":"US","launch_date":"2026-02-02","launch_site_code":"AFWTR","launch_vehicle":null,"mission":null,"orbit_class":"UNKNOWN","rcs_meters":null,"size_class":null,"mass_kg":null,"dimensions":null,"purposes":["comms"],"wikipedia_slug":null,"has_3d_model":false,"image_url":null,"decayed_at":null,"tle_current":{"epoch":"2026-09-19T20:29:58.939296Z","epoch_age_seconds":124738,"freshness":"FRESH","line1":"1 67664U 26022S   26262.85415439  .00011299  00000+0  35178-3 0  9996","line2":"2 67664  97.2860 294.3567 0000855 107.6439 252.4898 15.33447203 35320","mean_motion":15.33447203,"eccentricity":8.55e-5,"inclination_deg":97.286,"raan_deg":294.3567,"arg_perigee_deg":107.6439,"mean_anomaly_deg":252.4898,"bstar":0.00035178,"rev_number":3532,"period_min":93.906069748135,"perigee_km":464.95148581342,"apogee_km":466.12175400242,"semimajor_km":6843.6736199079,"source":"CELESTRAK","updated_at":"2026-09-20T09:00:43.623074Z"}}}